Location: Cussy
(47.0410°N, 4.6412°E)
Time: 20:47:18
(UTC+00:00)

Cosmos 1934 Rocket - Pass Details

Date: 30 November 2020
Orbit: 937 x 1000 km, 83.0° (Epoch: 27 January)

Event Time Altitude Azimuth Distance (km) Brightness Sun altitude
Rises 18:34:57 0° 351° (N) 3,735 7.1 -26.6°
Reaches altitude 10° 18:37:30 10° 352° (N) 2,779 6.4 -27.0°
Maximum altitude 18:43:55 85° 81° (E) 1,003 3.9 -28.1°
Drops below altitude 10° 18:50:13 10° 171° (S) 2,732 6.3 -29.2°
Sets 18:52:42 0° 172° (S) 3,668 6.9 -29.6°
